Find Starlink 33815

NORAD ID: 63497 Int'l Des: 2025-071 Owner: SPXS Country: US Constellation: starlink operational
LEOCIRCULAR

Aktuelle Ansicht

3D-Globus wird geladen...

Über Starlink 33815

Beschreibung wird geladen...

Nächste Überflüge

Passes for default location (London). Set your location on the main map for personalized predictions.

Höhenverlauf

Loading altitude history...

Zweizeiliger Elementsatz

1 63497U 25071E 26158.06507844 .00037864 00000-0 12244-2 0 9993
2 63497 53.1624 84.7913 0001004 116.7459 243.3645 15.31735146 66456
Epoch: 7. Juni 2026 • Age: 25 hours

Aktueller Status

Höhe 476.3 km
Geschwindigkeit 7.63 km/s
Subsatellitenpunkt 52.85°N, 141.82°W
Startdatum 7. Apr. 2025
Alter 1.1 years
Typ internet

Technische Details

Klassifizierung Payload
Masse 575.00 kg
Trockenmasse 530.00 kg
Gesamtmasse 575.00 kg
Länge 0.30 m
Durchmesser 4.10 m
Spannweite 29.00 m
Form Box + pan
Hersteller SPXS
Bus-Typ Starlink V2MO
Phasenstatus In Orbit
Besitzer/Staat SPXS/US

Most Searched